STARLINK-32620, 61928

Orbit data source: Space-Track

STARLINK-32620, 61928 is a payload satellite owned by SpaceX/Seattle (US) in LEO that was launched on Mon, 11 Nov 2024 UTC via an FALCON 9 launch vehicle from the Air Force Eastern Test Range (AFETR). Payloads include a variety of satellites, spacecraft, and rockets equipped with specific instruments for various scientific and technological missions. These include communications satellites like Starlink; space stations such as the ISS; scientific satellites like the Hubble; Earth observation satellites from companies like Planet Labs, Umbra, and HawkEye 360; GPS; miniature CubeSats for education and research; and military/defense satellites.

Loading next visibility...
STARLINK-32620 details
Identifier
61928, 2024-207S
Orbit
LEO
Last TLE update8 hours ago
Origin
Flag of USSpaceX/Seattle (US)
ManufacturerSpaceX/Seattle
MissionOperational spacecraft
Bus & MotorSTARLINK V2M, Unknown motor
Mass730 kg wet, ~700 kg dry
Launch date (UTC)
2024-11-11 (1 week ago)
Launch vehicle
FALCON 9
Launch site
Air Force Eastern Test Range (AFETR)
Object type
Payload
Rocket body
Debris
Shape & HBRUnknown
Radar Cross SectionRCS unknown

Expand to show TLE details & history

TLE from 8 hours ago
0 STARLINK-32620
1 61928U 24207S   24325.91668981 -.00812234  20542-3 -24466-2 0  9997
2 61928  43.0022  94.4363 0001787 289.7417 248.8775 15.91261890  2497
Epoch: 2024-11-20T22:00Z
Definitive object data (Epoch: 2024-11-20T22:00:01.999Z)
Latitude0.90059°
Longitude-116.93829°
Altitude298.838 km
Speed7.73 km/s
True Right ascension18h 13m 54s
True Declination0° 53' 41"
Sunlit
Object was in daylight at TLE epoch
Visualization TLE readout
Latitude30.4599°
Longitude100.65642°
Altitude301.526 km
Speed7.731 km/s
Apparent Right ascension11h 45m 21s
Apparent Declination-5° 57' 15"
Sunlit
Object is in full shadow
Visualization observer readout
Local Sidereal Time03:32:06
Azimuth71.946° E
Elevation-29.046°
Doppler factor1
Orbital elements
Apogee altitude301.942 km
Perigee altitude299.555 km
Semi-major axis6,678.886 km
Eccentricity0.0001787
Inclination43.0022°
RAAN94.4363°
Arg. of periapsis289.7417°
True anomaly248.8584°
Mean anomaly248.8775°
Eccentric anomaly248.86795°
Mean motion3.97637 °/min
BSTAR-0.0024466
Orbital period90.53 mins
Loading maneuver chart data...
Loading historical data...
Loading historical data...
Loading historical data...
Loading historical data...
Loading historical data...
Loading historical data...
Loading historical data...

STARLINK-32620 Visibility forecast

Observer location: undefined°, undefined

Span
Click to sort rows by Start time (UTC) header in descending order
Start Az.
Max El. time (UTC)
Max El. Az.
Max El.
End time (UTC)
End Az.
4 mins2024-11-21 12:33:33.929Z221.878° SW2024-11-21 12:35:33.929Z123.517° SE32.499°2024-11-21 12:37:33.929Z81.053° E
|